Landsat 5 - Orbit

View from above orbital plane
View from above orbital plane
View from above satellite
View from above satellite

Ground track
Ground track

The orbit data is extracted from the following two-line orbital elements,

1 14780U 84021A   13145.06112795  .00001997  00000-0  20976-3 0  9779
2 14780 098.1029 210.3264 0098934 002.9791 359.3334 14.87160291554913
Epoch (UTC): 25 May 2013 01:28:01
Eccentricity: 0.0098934
inclination: 98.1029°
perigee height: 538 km
apogee height: 676 km
right ascension of ascending node: 210.3264°
argument of perigee: 2.9791°
revolutions per day: 14.87160291
mean anomaly at epoch: 359.3334°
orbit number at epoch: 55491

The dashed part of the orbit path shows where the satellite is in the earth's shadow,  

Developed and maintained by Chris Peat, Heavens-Above GmbH. Please read the updated FAQ before sending e-mail. Imprint. DLR